Flag for Germany Weather past 2 weeks in Warburg, North Rhine-Westphalia, Germany

Now
43 °F

Light rain. Partly sunny.


Feels Like: 33 °F
Forecast: 35 / 40 °F
Wind: 24 mph from West

Location: Kassel / Calden

Current Time: Mar 31, 2015 at 10:35:21 AM

Latest Report: Mar 31, 2015 at 9:50 AM


Visibility: 5 mi

Pressure: 29.24 "Hg

Humidity: 93%

Dew point: 41 °F

Location of WarburgLocation

Historic Weather in Warburg — Graph

°F

Warburg temperature yesterday

Maximum temperature yesterday: 45 °F (at 12:50 PM)
Minimum temperature yesterday: 37 °F (at 1:50 PM)
Average temperature yesterday: 41 °F

Past Weeks' High & Low Weather Summary

 TemperatureHumidityPressure
High63 °F (Mar 25, 1:50 PM)100% (Mar 17, 6:20 AM)30.33 "Hg (Mar 17, 6:20 AM)
Low27 °F (Mar 23, 5:50 AM)37% (Mar 25, 1:50 PM)29.15 "Hg (Mar 31, 7:50 AM)
Average44 °F75%29.97 "Hg
* Reported Mar 16 8:20 AM — Mar 31 9:20 AM, Warburg, Weather by CustomWeather, © 2015

Note: Actual official high and low records may vary slightly from our data, if they occured in-between our weather recording intervals... More about our weather records

Advertising

Warburg weather history for previous 24 hours

 ConditionsComfort  
Time TempWeatherWind HumidityBarometerVisibility
9:20 AM
Tue, Mar 31
50 °FRain showers. Partly sunny.22 mph82%29.21 "HgN/A
8:50 AM48 °FLight rain. Partly sunny.18 mph87%29.18 "HgN/A
8:20 AM50 °FRain. Partly sunny.24 mph82%29.18 "HgN/A
7:50 AM48 °FScattered showers. Passing clouds.21 mph87%29.15 "HgN/A
7:20 AM46 °FLight rain. Partly cloudy.18 mph93%29.18 "Hg6 mi
6:50 AM45 °FLight rain. Mostly cloudy.21 mph93%29.18 "HgN/A
6:20 AM43 °FRain. Overcast.18 mph93%29.18 "Hg6 mi
5:50 AM43 °FRain. Overcast.18 mph87%29.18 "HgN/A
9:50 PM
Mon, Mar 30
37 °FClear.10 mph70%29.77 "Hg10 mi
9:20 PM39 °FPassing clouds.12 mph65%29.77 "HgN/A
8:50 PM41 °FPassing clouds.15 mph61%29.77 "HgN/A
8:20 PM41 °FPassing clouds.13 mph66%29.77 "HgN/A
7:50 PM41 °FPassing clouds.17 mph66%29.77 "HgN/A
7:20 PM41 °FLight rain. Passing clouds.15 mph66%29.74 "HgN/A
6:50 PM43 °FPassing clouds.22 mph61%29.74 "HgN/A
6:20 PM43 °FScattered showers. Scattered clouds.26 mph61%29.71 "HgN/A
5:50 PM41 °FScattered showers. Scattered clouds.20 mph76%29.71 "HgN/A
5:20 PM41 °FScattered showers. Passing clouds.18 mph76%29.68 "HgN/A
4:50 PM39 °FScattered showers. Partly sunny.23 mph81%29.68 "HgN/A
4:20 PM41 °FScattered showers. Partly sunny.23 mph76%29.65 "HgN/A
3:50 PM37 °FScattered showers. Passing clouds.25 mph81%29.65 "HgN/A
3:20 PM39 °FRain showers. Partly sunny.25 mph81%29.62 "HgN/A
2:50 PM39 °FPartly sunny.31 mph87%29.62 "HgN/A
2:20 PM41 °FPartly sunny.22 mph76%29.59 "HgN/A
1:50 PM37 °FLight rain. Broken clouds.36 mph81%29.56 "Hg4 mi
1:20 PM45 °FBroken clouds.29 mph66%29.53 "HgN/A
12:50 PM45 °FPassing clouds.26 mph66%29.53 "HgN/A
12:20 PM41 °FScattered clouds.22 mph76%29.53 "HgN/A
11:50 AM41 °FScattered clouds.25 mph81%29.50 "HgN/A
11:20 AM39 °FLight rain. Broken clouds.29 mph75%29.47 "HgN/A
10:50 AM43 °FPartly sunny.32 mph61%29.45 "HgN/A
10:20 AM43 °FPartly sunny.28 mph61%29.45 "HgN/A
Weather by CustomWeather, © 2015

See weather overviewHow to use our weather pages